This is the latest recevied weather packets stored in our database for station/object IZ1UQG-2. If no packets are shown the sender has not sent any weather packets the latest 10 day(s).
| Time | Temp. | Humidity | Pressure | Rain* | Wind** | Luminosity | Snow |
|---|---|---|---|---|---|---|---|
| 1777485364 | 18.33° C | 71% | 1013.7 hPa | 0 mm | - | 16 W/m² | - |
| 1777485244 | 18.33° C | 71% | 1013.8 hPa | 0 mm | - | 18 W/m² | - |
| 1777483864 | 18.33° C | 75% | 1013.6 hPa | 0 mm | - | 54 W/m² | - |
| 1777482911 | 18.89° C | 69% | 1013.5 hPa | 0 mm | - | 54 W/m² | - |
| 1777482844 | 18.89° C | 69% | 1013.4 hPa | 0 mm | - | 54 W/m² | - |
| 1777482736 | 18.89° C | 69% | 1013.4 hPa | 0 mm | - | 56 W/m² | - |
| 1777482664 | 18.89° C | 69% | 1013.5 hPa | 0 mm | - | 58 W/m² | - |
| 1777482304 | 18.89° C | 69% | 1013.4 hPa | 0 mm | - | 58 W/m² | - |
| 1777482124 | 18.89° C | 69% | 1013.4 hPa | 0 mm | - | 60 W/m² | - |
| 1777481464 | 18.89° C | 69% | 1013.3 hPa | 0 mm | - | 86 W/m² | - |
| 1777480684 | 18.89° C | 69% | 1013.4 hPa | 0 mm | - | 98 W/m² | - |
| 1777480024 | 19.44° C | 69% | 1013.4 hPa | 0 mm | - | 109 W/m² | - |
| 1777479784 | 19.44° C | 69% | 1013.4 hPa | 0 mm | - | 104 W/m² | - |
| 1777479424 | 19.44° C | 69% | 1013.4 hPa | 0 mm | - | 100 W/m² | - |
| 1777479065 | 19.44° C | 68% | 1013.4 hPa | 0 mm | - | 109 W/m² | - |
| 1777478644 | 19.44° C | 68% | 1013.4 hPa | 0 mm | - | 121 W/m² | - |
| 1777477144 | 19.44° C | 65% | 1013.6 hPa | 0 mm | - | 121 W/m² | - |
| 1777476004 | 20° C | 63% | 1013.6 hPa | 0 mm | - | 120 W/m² | - |
| 1777475405 | 20° C | 65% | 1013.6 hPa | 0 mm | - | 139 W/m² | - |
| 1777475224 | 20° C | 65% | 1013.7 hPa | 0 mm | - | 142 W/m² | - |
| 1777474505 | 20° C | 65% | 1013.7 hPa | 0 mm | - | 162 W/m² | - |
| 1777474444 | 20° C | 65% | 1013.8 hPa | 0 mm | - | 160 W/m² | - |
| 1777473183 | 20° C | 63% | 1013.9 hPa | 0 mm | - | 218 W/m² | - |
| 1777472764 | 20° C | 63% | 1013.9 hPa | 0 mm | - | 248 W/m² | - |
| 1777472649 | 20° C | 65% | 1013.9 hPa | 0 mm | - | 251 W/m² | - |
* Rain latest hour (hover to see other rain measurements)
** Current wind speed in m/s (hover to see current wind gust speed)